Regional Weather Roundup
Issued by NWS

Home | Current Version | Previous Version | Graphics & Text | Print | Product List | Glossary On
Versions: 1 2 3 4 5 6 7 8 9 10 11 12 13 14 15 16 17 18 19 20 21 22 23 24 25 26 27 28 29 30 31 32 33 34 35 36 37 38 39 40 41 42 43 44 45 46 47 48 49 50
000
ASUS45 KTFX 231419
RWRMT
MONTANA HOURLY WEATHER ROUNDUP
NATIONAL WEATHER SERVICE GREAT FALLS MT
819 AM MDT THU OCT 23 2014

NOTE: "FAIR" INDICATES FEW OR NO CLOUDS BELOW 12000 FEET WITH NO
SIGNIFICANT WEATHER AND/OR OBSTRUCTIONS TO VISIBILITY.

* THESE STATIONS ARE NOT UNDER NWS QUALITY CONTROL. THEY DO NOT
   REPORT WEATHER SUCH AS PRECIPITATION OR FOG.

MTZ001>007-043-231500-
WEST OF THE DIVIDE
CITY           SKY/WX    TMP DP  RH WIND       PRES   REMARKS
KALISPELL      LGT RAIN  48  45  89 S9        29.81S
MISSOULA       LGT RAIN  52  39  61 E6        29.89R
BUTTE          CLOUDY    45  30  56 CALM      29.99R
MULLAN PASS    RAIN      37  37 100 VRB5      29.87S VSB 1    WCI  33
* ESSEX        N/A       44  43  96 W3         N/A
* LINCOLN      N/A       49  33  54 W6G14      N/A
* LOOKOUT PASS N/A       43  43 100 SE4G9      N/A
* POLSON       N/A       48  39  71 S2G8       N/A
* RONAN APT    CLOUDY    55  41  59 SE6        N/A
* SEELEY LAKE  N/A       41  39  93 N/A        N/A
* THOMP F APT  CLOUDY    38  22  53 E4         N/A
$$

MTZ008-052>055-231500-
SOUTHWEST MONTANA
CITY           SKY/WX    TMP DP  RH WIND       PRES   REMARKS
BOZEMAN        PTCLDY    48  34  59 S8        29.96R
DILLON         CLOUDY    45  30  56 SW7       30.01R
W YELLOWSTONE  PTSUNNY   28  27  96 CALM      30.13R
* THREE FORKS  PTCLDY    52  37  57 SW14       N/A
* BOULDER HILL N/A       43  25  49 S12        N/A
* MONIDA PASS  N/A       35  24  64 SE16G22    N/A   WCI  25
* RAYNOLDS PAS N/A       40  27  60 S16        N/A   WCI  32
* WHITEHALL    N/A       49  29  46 SW5G14     N/A
* WISE RIVER   N/A       34  30  85 NW3        N/A
$$

MTZ009>010-012-014-046-048-049-054-231500-
EAST SLOPES AND CENTRAL MONTANA
CITY           SKY/WX    TMP DP  RH WIND       PRES   REMARKS
CUT BANK       CLOUDY    54  37  53 SW18      29.74S
GREAT FALLS    CLOUDY    48  34  59 S9        29.81R
HELENA         PTSUNNY   55  30  39 SW10      29.90R
MALMSTROM AFB  CLOUDY    50  34  54 SW15      29.82S
* CONRAD       CLOUDY    48  41  77 S13G20     N/A
* DEARBORN     N/A       58  32  37 S11G24     N/A
* EAST GLACIER N/A       48  37  66 W33G52     N/A
* MONARCH      N/A       48  19  32 SW19G25    N/A
* PENDROY      N/A       47  35  63 S5G10      N/A
* ROGERS PASS  N/A       47  32  56 E11G24     N/A
* SAINT MARY   N/A       49  38  66 SW14G31    N/A
* SWEET GRASS  N/A       53  36  53 SW32G38    N/A
* WHITE SULPH  N/A       45  27  49 SW7G12     N/A
$$

MTZ011-013-016-021-035-040-045-047-050-051-231500-
NORTH CENTRAL MONTANA
CITY           SKY/WX    TMP DP  RH WIND       PRES   REMARKS
HAVRE          CLOUDY    54  36  51 SW15      29.73S
LEWISTOWN      CLOUDY    55  30  39 SW20      29.84S
* CHINOOK      CLOUDY    57  34  42 W10G16    29.72S
* FORT BENTON  CLOUDY    57  32  39 S12       29.78R
* CHESTER      N/A       52  36  55 SW7G12     N/A
* DENTON       N/A       54  31  42 SW6G12     N/A
* GEYSER       N/A       53  27  37 W16G23     N/A
* JUDITH GAP   N/A       49  30  48 SW15       N/A
* LOMA         N/A       59  33  38 SW26       N/A
$$

MTZ017>020-022>027-061-062-231500-
NORTHEAST MONTANA
CITY           SKY/WX    TMP DP  RH WIND       PRES   REMARKS
GLASGOW        CLOUDY    37  30  76 E10       29.78F WCI  30
GLENDIVE       PTCLDY    34  28  79 SE7       29.88S WCI  28
JORDAN         PTSUNNY   32  27  82 CALM      29.81F
SIDNEY         SUNNY     34  30  85 S8        29.86F WCI  27
WOLF POINT     PTSUNNY   28  25  89 CALM      29.82S
* BEAVER HILL  N/A       42  27  55 S12        N/A
* CIRCLE       N/A       41  31  68 N/A        N/A
* LINDSAY DVD  N/A       46  27  48 SW8        N/A
* NAVAJO       N/A       43  30  60 SW12       N/A
$$

MTZ028>042-056>058-231500-
SOUTHCENTRAL AND SOUTHEAST MONTANA
CITY           SKY/WX    TMP DP  RH WIND       PRES   REMARKS
BAKER          SUNNY     36  27  70 SE6       29.91S WCI  31
BILLINGS       CLOUDY    52  23  32 SW14      29.89F
LIVINGSTON     PTCLDY    54  28  37 SW29G41   29.91R
MILES CITY     PTCLDY    37  27  67 S9        29.88F WCI  30
* LAUREL APT   CLOUDY    54  19  25 SW8        N/A
* ROUNDUP APT  CLOUDY    45  25  45 S5         N/A
* ALZADA       N/A       37  26  64 E3         N/A
* HYSHAM       N/A       48  22  36 W4         N/A
* LAME DEER    N/A       50  19  29 SW5        N/A
* REED POINT   N/A       34  28  79 N/A        N/A
* ROSCOE HILL  N/A       53  21  29 SW10G22    N/A
$$

REGIONAL REPORTS...DAKOTAS
CITY           SKY/WX    TMP DP  RH WIND       PRES   REMARKS
WILLISTON      PTCLDY    34  30  85 SW3       29.84S
DICKINSON      SUNNY     39  28  65 SW7       29.87S WCI  34
BEACH          N/A       39  30  70 SW8       29.89S WCI  33
CROSBY         N/A       37  34  89 SW15      29.82R WCI  28
TIOGA          SUNNY     32  32 100 CALM      29.86F
BISMARCK       SUNNY     34  30  85 E3        29.92R
GRAND FORKS    SUNNY     43  39  86 SW6       29.86R
FARGO          SUNNY     45  39  80 S7        29.92R
BUFFALO SD     PTCLDY    41  27  58 S3        29.86F
RAPID CITY     PTCLDY    37  25  62 CALM      29.97F
$$

REGIONAL REPORTS...WYOMING/IDAHO/WASHINGTON
CITY           SKY/WX    TMP DP  RH WIND       PRES   REMARKS
GILLETTE       CLOUDY    46  21  37 S10       29.95S
SHERIDAN       CLOUDY    36  27  70 SW7       29.93S WCI  30
CODY           CLOUDY    55  28  35 W10G17    30.00F
YELLOWSTONE LA PTSUNNY   28  25  89 CALM      30.18F
SALMON         CLOUDY   N/A N/A N/A N/A        N/A
MULLAN PASS    RAIN      37  37 100 VRB5      29.87S VSB 1    WCI  33
SAND POINT     CLOUDY    50  50 100 SW5       29.78S
SPOKANE        LGT RAIN  50  48  93 S10       29.78R
$$

REGIONAL REPORTS...ALBERTA
CITY           SKY/WX    TMP DP  RH WIND       PRES   REMARKS
CALGARY        SUNNY     48  34  59 S13       29.49F
LETHBRIDGE     PTSUNNY   54  37  53 SW17G29   29.64S
MEDICINE HAT   CLOUDY    55  39  55 S14       29.65R
EDMONTON       SUNNY     32  28  85 SW3       29.41F
WATERTON GATE  N/A       45  41  86 SW12       N/A
CARDSTON       N/A       52  37  57 S10G18     N/A
$$

REGIONAL REPORTS...SASKATCHEWAN
CITY           SKY/WX    TMP DP  RH WIND       PRES   REMARKS
SWIFT CURRENT  SUNNY     46  36  68 SW18      29.68R
MOOSE JAW      PTSUNNY   46  37  71 SW10      29.71F
REGINA         PTSUNNY   34  32  92 SE8       29.74F WCI  27
VAL MARIE      N/A       34  30  85 S2         N/A
ASSINIBOIA     N/A       45  34  65 SW12       N/A
CORONACH       N/A       32  28  85 SE5        N/A   WCI  27

$$




USA.gov is the U.S. government's official web portal to all federal, state and local government web resources and services.